Temperature
10 11 11 11 11 11 11 11 11 11 12 12 12 12 12 12 12 12 12 12 12 12 12 12 12 12 12 12 12 12 12 12 12 12 12 12 12 11 11 11 11 10 10
10 10 10 10 10 10 10 10 11 11 11 11 11 11 11 11 11 11 11 11 11 12 12 12 12 11 12 11 12 12 12 12 12 12 12 12 11 11 11 11 11 11 10
9 9 9 9 9 10 10 10 10 10 10 10 10 10 10 11 11 11 11 11 11 11 11 11 11 11 11 11 11 11 11 12 12 12 12 11 11 11 11 11 11 10 10
8 9 9 9 9 9 9 9 9 9 10 10 10 10 10 10 10 10 10 10 10 10 10 10 10 11 11 11 11 11 11 11 11 11 11 11 11 11 11 11 10 10 10
8 8 8 8 8 8 8 8 8 8 9 9 9 9 9 9 10 10 10 10 10 10 10 10 10 10 10 10 10 10 10 11 11 11 11 11 11 11 11 10 10 10 10
7 7 7 7 8 8 8 8 8 8 8 8 8 8 9 9 9 9 9 9 9 9 9 10 10 10 10 10 10 10 10 10 10 10 10 10 10 11 10 10 10 10 10
7 7 7 7 7 7 7 7 7 7 7 7 7 7 8 8 8 9 9 9 9 9 9 9 9 9 9 9 9 9 9 10 10 10 10 10 10 10 10 10 10 10 10
7 7 6 6 6 6 7 7 6 6 6 6 6 5 6 7 7 8 8 8 8 9 9 9 9 9 9 9 9 9 9 9 9 9 9 9 9 9 9 10 10 10 10
6 6 6 6 6 6 6 6 6 6 6 6 5 5 5 5 6 7 7 7 8 8 8 8 8 8 8 8 8 8 8 9 9 9 9 9 9 9 9 9 10 9 9
6 6 6 6 5 5 5 5 5 5 5 5 5 5 5 5 4 5 6 6 7 7 7 7 8 8 8 8 8 8 8 8 8 8 9 8 8 9 9 9 9 9 9
6 6 5 5 5 5 5 5 5 5 5 5 4 4 4 4 4 4 4 5 6 6 7 7 7 7 7 7 7 8 8 8 8 8 8 8 8 8 8 9 9 9 9
5 5 5 5 5 5 5 5 5 4 4 4 4 4 4 4 4 4 4 4 5 6 6 6 6 7 7 7 7 7 7 7 7 8 8 8 8 8 8 8 8 9 8
5 5 5 5 4 4 4 4 4 4 4 4 4 4 4 4 4 4 4 4 4 5 5 6 6 6 6 6 7 7 7 7 7 7 7 8 8 8 8 8 8 8 8
5 5 4 4 4 4 4 4 4 4 4 4 4 3 3 4 4 4 4 4 3 4 4 5 6 6 6 6 6 6 6 7 7 7 7 7 7 7 7 8 8 8 8
4 4 4 4 4 4 4 4 3 3 3 3 3 3 3 3 3 4 4 4 3 3 3 4 5 6 6 5 6 6 6 6 6 7 7 7 7 7 7 7 7 7 7
4 4 4 4 3 3 3 3 3 3 3 3 3 3 3 3 3 3 3 3 3 3 3 4 4 5 5 5 5 5 6 6 6 6 7 7 7 7 7 7 7 7 7
4 3 3 3 3 3 3 3 3 3 3 3 3 3 3 3 3 3 3 3 3 3 3 4 4 4 4 5 5 5 5 5 6 6 6 6 7 6 7 7 7 7 7
3 3 3 3 3 3 3 3 3 3 3 3 3 3 3 3 2 2 2 3 3 3 3 3 4 4 4 4 5 5 5 5 5 6 6 6 6 6 6 6 6 6 6
3 3 3 3 2 2 2 2 2 2 2 2 2 2 2 2 2 2 2 2 2 2 2 3 3 3 4 4 4 4 5 5 5 5 5 6 6 6 6 6 6 6 6
3 3 2 2 2 2 2 2 2 2 2 2 2 2 2 2 2 2 2 2 2 2 2 2 2 3 3 3 3 4 4 4 4 5 5 5 5 5 6 5 5 5 5
2 2 2 2 2 2 2 2 2 1 1 1 2 2 2 1 1 2 2 2 2 2 2 2 2 2 3 3 3 3 3 4 4 4 4 5 5 5 5 5 5 5 5
2 2 2 2 2 2 1 1 1 1 1 1 1 1 1 1 1 1 2 2 2 2 2 2 2 2 3 3 3 3 3 3 3 4 4 4 4 4 5 5 4 4 4
1 1 1 1 1 1 1 1 1 0 0 1 1 1 1 1 1 1 1 2 2 2 2 2 2 2 3 3 3 3 3 3 3 3 3 3 3 3 4 4 4 4 4
1 1 1 1 1 1 1 1 0 0 0 0 0 0 1 1 1 1 1 1 1 1 2 2 2 2 3 3 3 3 3 3 3 3 3 2 3 3 3 3 3 3 3
1 1 1 1 1 1 1 0 0 -0 -0 -0 0 0 0 1 1 1 1 1 1 1 1 2 2 2 2 2 3 2 2 2 2 2 2 2 2 2 2 2 2 2 2
0 0 0 0 0 0 0 0 -0 -0 -1 -0 -0 0 0 0 0 0 1 1 1 1 1 2 2 2 2 2 2 2 2 2 2 1 2 2 2 2 1 1 1 2 2
Wind_Speed
2 3 3 3 4 3 3 3 2 2 2 2 3 3 3 3 4 4 5 8 9 10 11 12 11 12 12 12 12 13 13 14 13 14 15 15 16 16 15 14 13 12 11
2 2 3 3 3 3 2 2 2 2 3 3 3 4 4 4 4 4 5 7 8 9 10 11 12 12 12 12 12 12 13 13 14 14 14 15 16 16 16 15 14 13 12
2 2 3 3 4 4 3 2 3 2 3 3 4 4 4 4 5 5 5 5 6 8 10 11 12 12 12 12 12 11 11 12 13 14 15 15 15 16 17 17 16 15 14
3 2 3 4 4 4 2 2 2 2 3 3 4 4 4 4 6 5 5 5 5 6 8 10 11 12 13 13 12 12 12 11 12 12 13 15 15 15 17 17 17 16 15
4 3 3 4 4 3 2 3 2 2 3 4 4 4 4 5 5 5 5 5 5 6 6 9 11 12 13 13 13 12 12 12 13 13 12 13 16 16 16 17 17 17 17
5 4 4 4 4 3 3 2 3 3 3 4 5 5 5 5 5 5 6 6 6 6 6 7 7 9 12 14 14 14 13 13 13 13 13 12 13 16 17 16 17 17 17
5 4 5 4 4 4 4 4 3 3 3 2 2 4 5 5 6 6 5 6 6 7 7 7 7 7 7 11 13 14 14 14 14 13 13 12 13 13 15 16 15 17 17
6 5 5 5 5 4 4 4 3 3 3 1 1 2 3 4 3 5 5 6 6 5 6 7 7 7 7 7 10 14 14 15 14 15 14 13 14 13 13 15 16 15 17
6 6 6 5 5 4 5 4 4 4 4 3 3 3 2 4 4 3 5 6 5 4 5 5 7 8 9 7 8 11 14 15 15 15 15 15 14 15 14 14 14 15 15
6 6 6 6 5 5 5 5 5 5 5 5 3 4 5 4 3 4 3 3 5 6 6 6 6 7 9 9 10 12 14 15 16 16 16 15 15 15 15 14 14 15 15
6 7 6 6 6 5 6 6 6 6 6 6 5 4 4 5 5 5 7 5 4 5 6 6 6 6 8 10 10 12 14 15 16 16 16 15 16 16 15 14 15 14 14
5 6 6 6 6 6 7 7 7 7 8 8 7 6 5 5 5 5 7 7 7 6 6 6 7 7 7 9 11 13 15 16 16 15 15 14 15 15 15 14 14 14 13
6 7 6 6 6 7 7 7 8 8 8 9 8 7 7 8 6 6 7 8 8 6 5 6 7 7 8 8 9 13 15 15 15 15 14 14 14 14 14 13 13 13 13
7 7 7 7 8 8 8 7 7 8 8 9 10 9 8 8 7 7 7 7 8 7 6 6 4 6 6 7 10 12 11 14 15 13 13 13 12 13 13 12 12 12 12
7 7 7 8 8 8 8 8 7 9 8 8 9 9 9 8 7 7 7 7 8 9 9 6 4 5 5 6 8 8 9 13 13 13 12 12 12 12 12 11 11 11 11
7 7 8 8 8 8 8 8 7 8 9 9 8 9 9 8 8 7 8 7 8 9 9 6 5 4 5 6 9 7 8 13 13 13 13 12 12 12 11 11 10 10 9
7 8 8 8 8 8 8 8 8 9 10 9 9 10 11 9 8 7 7 7 8 7 10 8 5 5 5 6 6 5 7 7 8 12 12 12 12 11 11 10 10 9 8
8 8 8 8 8 8 8 9 10 10 10 10 10 10 11 9 10 8 7 8 8 7 9 10 7 5 6 6 5 5 5 5 5 9 11 11 11 11 10 10 9 9 8
7 7 7 8 9 9 9 9 9 10 10 10 10 10 11 10 11 8 9 9 7 8 7 8 8 5 5 4 4 4 5 3 4 6 7 8 9 9 9 9 8 8 8
7 7 7 8 8 9 9 9 9 9 9 10 10 10 10 11 11 10 9 9 8 8 7 7 7 6 5 4 3 4 3 2 3 3 4 5 7 7 8 8 8 7 7
7 7 7 8 8 8 8 9 8 9 9 9 9 10 10 11 13 11 9 8 8 7 7 7 7 6 6 5 5 3 4 2 2 2 2 2 2 3 4 6 7 7 7
6 7 7 8 8 9 13 15 12 8 8 9 9 9 9 10 13 15 15 14 12 10 9 8 7 8 8 6 4 4 3 3 3 1 1 2 1 2 2 3 6 7 7
6 7 8 8 9 11 15 15 15 9 8 8 8 8 8 8 10 8 11 13 13 15 14 11 10 9 8 6 5 5 5 4 3 2 1 1 0 1 1 3 6 6 6
6 7 8 8 8 11 15 14 14 8 7 8 8 8 7 7 7 7 7 7 7 9 10 8 8 8 7 6 6 5 4 2 0 0 2 1 0 0 0 2 5 6 6
7 7 7 7 8 10 12 13 12 6 6 7 7 7 7 6 10 10 7 6 6 6 7 8 8 7 8 8 6 4 4 4 2 1 1 1 1 1 1 1 3 5 6
7 7 7 7 8 8 11 13 12 5 6 6 6 6 8 8 9 10 7 6 7 6 4 3 3 3 3 4 5 5 6 5 3 1 1 2 2 2 1 1 1 2 4
Wind_Direction
336 340 338 342 336 337 337 324 322 314 307 314 317 299 280 276 270 265 266 262 259 258 257 248 241 240 239 236 232 227 223 221 218 215 212 207 203 201 201 203 203 202 205
320 323 319 319 316 317 310 302 283 276 274 271 280 278 271 268 267 265 269 266 265 266 262 255 249 245 244 242 238 232 226 224 222 218 216 215 210 206 205 206 207 205 208
300 297 301 302 305 306 300 301 296 278 278 275 272 270 265 259 256 256 259 260 257 263 266 263 259 253 248 245 242 236 234 232 227 222 220 218 215 212 209 208 209 209 210
290 289 286 289 302 304 289 270 273 275 277 280 273 271 266 257 253 247 246 251 250 258 262 265 263 260 255 249 245 241 236 236 232 230 227 222 218 217 215 212 212 212 214
278 272 271 282 296 290 270 270 273 257 267 281 276 269 262 254 251 249 240 243 243 249 254 260 262 260 260 256 251 246 239 237 234 233 231 229 224 221 219 217 215 216 218
272 271 270 275 278 276 272 262 265 260 255 267 279 280 269 259 246 241 239 242 243 245 248 254 255 258 257 259 257 251 245 241 236 233 233 234 233 228 222 221 221 220 221
267 263 267 270 261 259 263 257 257 262 264 258 290 295 283 257 245 241 238 236 239 243 243 246 247 248 254 257 255 255 252 247 242 236 235 236 239 237 229 225 226 227 225
271 268 256 261 256 255 262 256 241 254 262 228 237 293 307 298 258 244 238 235 237 235 239 250 242 240 245 247 252 256 256 253 248 241 239 239 242 243 238 233 230 229 229
271 264 260 257 257 246 253 255 239 236 250 243 214 213 248 265 299 259 236 239 234 234 241 241 245 242 242 244 246 251 255 255 252 245 242 240 243 245 242 240 236 235 232
270 266 257 252 252 250 252 255 249 232 235 246 243 232 232 238 259 294 275 253 252 242 239 249 247 249 241 239 243 252 251 252 251 247 244 243 243 247 246 245 240 239 236
270 266 260 253 251 249 250 250 253 241 233 234 235 239 242 246 238 250 276 278 271 251 243 243 242 242 248 241 238 246 249 249 251 251 247 244 244 247 249 250 245 242 238
271 265 262 254 254 251 249 249 248 245 238 235 235 234 236 238 231 238 258 268 273 267 256 248 240 238 244 245 242 250 249 246 250 251 249 245 246 247 249 252 250 244 242
275 268 264 257 256 255 254 252 249 249 242 236 237 239 240 246 241 243 252 264 273 278 263 251 237 233 241 240 244 252 250 244 249 251 247 244 245 247 249 254 251 244 243
269 269 265 263 261 258 259 256 256 252 248 241 243 241 245 247 243 238 241 252 270 277 265 256 245 229 231 236 243 250 251 247 247 248 245 243 244 245 246 249 249 244 244
271 268 267 266 264 260 258 255 257 255 253 246 243 243 246 249 246 244 237 229 244 265 270 263 250 226 224 234 244 244 245 246 250 250 242 240 241 241 242 243 248 243 243
269 271 271 270 268 266 263 259 262 257 253 252 245 244 248 252 248 245 236 234 236 249 263 265 261 251 236 255 254 248 246 248 250 248 240 236 237 239 239 237 243 240 235
271 268 268 269 268 267 265 261 261 260 255 256 252 246 248 248 247 247 239 234 238 241 257 270 262 253 238 241 255 246 243 232 240 245 239 236 234 234 232 232 231 225 218
275 269 268 267 267 267 264 260 261 261 256 256 255 250 250 248 243 244 241 237 239 242 250 264 271 258 251 234 240 254 254 241 234 241 237 233 228 228 226 224 218 211 208
279 274 271 269 269 268 268 264 262 261 257 255 254 252 251 245 244 243 242 240 239 244 244 252 267 264 260 242 238 258 247 244 240 228 230 225 222 221 217 216 207 203 203
284 280 275 272 271 271 269 268 266 262 260 259 255 252 253 245 242 240 242 239 237 239 240 243 257 263 256 240 225 237 251 245 247 234 230 224 216 213 208 205 198 196 193
288 285 284 284 284 281 274 275 273 268 266 267 264 257 253 254 251 245 244 236 232 237 237 239 245 254 252 233 231 229 239 262 267 237 224 237 204 202 195 186 179 176 179
292 293 291 289 289 287 288 287 286 276 270 266 268 265 259 256 259 255 254 249 239 235 234 237 244 242 246 240 239 223 223 243 259 201 178 266 203 205 195 166 165 169 172
296 294 291 290 289 290 293 290 290 286 277 271 267 267 265 260 262 254 256 256 250 246 244 239 238 242 239 229 220 223 220 229 247 218 152 279 251 212 193 156 160 166 168
293 295 295 292 291 293 298 297 298 292 283 278 272 267 263 262 257 254 253 248 244 245 246 243 237 241 237 224 214 216 196 166 145 181 157 217 323 68 55 134 153 161 158
298 296 296 296 294 294 297 299 300 288 285 284 279 269 259 258 255 259 258 253 253 252 250 242 238 238 234 222 206 182 169 163 199 256 111 147 153 84 64 62 140 141 143
299 301 301 300 296 294 295 302 303 295 293 292 289 279 267 262 261 263 252 244 249 249 233 225 228 229 213 198 215 209 187 182 187 210 182 151 160 123 84 43 70 112 126
Height
1479 1478 1478 1478 1478 1478 1478 1477 1477 1478 1478 1479 1479 1480 1480 1481 1482 1482 1483 1484 1485 1486 1487 1488 1489 1490 1491 1492 1493 1493 1494 1495 1497 1498 1499 1500 1501 1502 1503 1504 1505 1506 1506
1476 1475 1475 1475 1474 1474 1474 1473 1473 1473 1473 1474 1474 1475 1476 1476 1477 1477 1478 1479 1480 1481 1482 1483 1484 1485 1486 1487 1488 1488 1489 1490 1492 1493 1494 1495 1496 1497 1498 1500 1501 1502 1503
1472 1472 1471 1471 1471 1470 1470 1469 1469 1469 1469 1469 1469 1470 1470 1471 1471 1472 1473 1474 1475 1476 1477 1478 1478 1479 1480 1482 1483 1483 1484 1486 1487 1488 1489 1491 1492 1492 1493 1495 1496 1497 1498
1469 1468 1467 1467 1467 1466 1465 1465 1465 1464 1464 1464 1464 1464 1465 1465 1466 1467 1467 1468 1469 1470 1471 1472 1473 1474 1475 1476 1477 1478 1479 1480 1482 1482 1484 1485 1487 1488 1489 1490 1491 1492 1493
1466 1465 1464 1463 1463 1462 1461 1461 1460 1460 1459 1459 1459 1459 1459 1460 1460 1461 1461 1462 1463 1464 1466 1467 1468 1469 1470 1471 1472 1473 1474 1475 1477 1477 1478 1480 1481 1482 1484 1485 1486 1487 1488
1462 1461 1459 1459 1458 1457 1457 1456 1456 1455 1455 1454 1454 1453 1454 1454 1454 1455 1455 1456 1457 1458 1459 1461 1462 1463 1464 1465 1466 1467 1468 1469 1471 1472 1473 1475 1476 1477 1478 1479 1481 1481 1482
1458 1456 1455 1454 1454 1453 1452 1452 1451 1451 1450 1450 1449 1448 1448 1448 1448 1449 1449 1450 1451 1452 1453 1455 1456 1457 1458 1459 1460 1462 1463 1464 1465 1467 1468 1469 1470 1472 1472 1474 1475 1477 1477
1454 1452 1451 1450 1449 1448 1448 1447 1447 1446 1446 1446 1446 1444 1443 1442 1441 1442 1443 1444 1445 1447 1447 1449 1450 1451 1452 1453 1454 1456 1457 1458 1459 1461 1462 1463 1465 1466 1467 1468 1469 1471 1472
1449 1448 1447 1446 1444 1444 1443 1443 1442 1442 1441 1442 1443 1443 1441 1438 1436 1435 1436 1437 1438 1439 1441 1442 1443 1445 1446 1447 1448 1449 1451 1452 1453 1455 1456 1457 1459 1460 1461 1462 1463 1465 1466
1445 1443 1442 1441 1440 1439 1438 1438 1438 1437 1437 1436 1438 1438 1438 1437 1435 1430 1430 1432 1432 1433 1434 1436 1437 1438 1439 1440 1441 1443 1444 1446 1447 1448 1449 1451 1452 1454 1455 1456 1457 1458 1460
1440 1439 1437 1436 1435 1434 1433 1433 1432 1432 1432 1431 1431 1432 1432 1432 1430 1429 1424 1424 1426 1426 1427 1429 1430 1431 1433 1434 1435 1436 1437 1439 1440 1442 1443 1444 1445 1447 1448 1449 1450 1452 1453
1434 1433 1432 1431 1430 1429 1428 1427 1427 1426 1426 1425 1426 1426 1426 1426 1424 1424 1421 1419 1419 1420 1421 1422 1423 1424 1426 1427 1428 1429 1430 1431 1433 1435 1436 1437 1439 1440 1441 1443 1444 1445 1446
1429 1428 1427 1425 1424 1423 1423 1422 1421 1420 1419 1419 1419 1419 1420 1420 1420 1420 1418 1415 1414 1414 1414 1415 1416 1417 1419 1420 1421 1422 1423 1424 1426 1427 1429 1430 1432 1434 1435 1436 1437 1439 1440
1423 1422 1421 1420 1419 1418 1417 1416 1414 1414 1413 1412 1412 1413 1413 1413 1413 1413 1413 1412 1409 1408 1407 1407 1409 1410 1411 1413 1414 1415 1416 1417 1419 1420 1422 1423 1425 1427 1429 1430 1431 1432 1434
1418 1416 1415 1414 1412 1411 1411 1409 1408 1407 1406 1406 1406 1406 1405 1405 1406 1406 1406 1406 1406 1403 1400 1400 1402 1403 1405 1406 1408 1409 1409 1410 1411 1413 1415 1416 1418 1420 1421 1423 1424 1426 1427
1412 1410 1409 1407 1406 1405 1404 1403 1401 1400 1400 1399 1398 1398 1398 1398 1398 1399 1399 1399 1399 1399 1395 1394 1395 1396 1398 1399 1401 1402 1402 1403 1405 1406 1408 1409 1411 1413 1415 1416 1418 1419 1421
1406 1404 1402 1401 1400 1398 1397 1396 1395 1394 1393 1391 1391 1391 1390 1390 1391 1391 1392 1392 1392 1392 1390 1388 1390 1390 1392 1393 1394 1395 1396 1396 1397 1399 1401 1403 1404 1407 1408 1410 1412 1413 1414
1400 1398 1397 1395 1393 1392 1391 1390 1388 1387 1385 1384 1383 1383 1383 1383 1383 1384 1384 1384 1384 1385 1385 1382 1382 1384 1385 1386 1387 1388 1389 1389 1390 1392 1394 1396 1398 1400 1402 1403 1405 1407 1408
1394 1393 1391 1389 1388 1386 1385 1383 1382 1380 1379 1377 1376 1376 1375 1376 1375 1376 1377 1377 1377 1379 1379 1378 1376 1377 1378 1380 1381 1382 1382 1383 1384 1386 1387 1390 1392 1394 1396 1397 1399 1400 1402
1390 1388 1386 1384 1382 1380 1379 1377 1375 1373 1371 1370 1369 1368 1368 1368 1368 1369 1369 1370 1371 1372 1372 1372 1371 1371 1372 1374 1375 1375 1375 1377 1378 1380 1382 1384 1386 1388 1390 1391 1393 1395 1397
1385 1383 1381 1379 1377 1375 1373 1371 1369 1367 1365 1363 1362 1361 1361 1361 1361 1362 1363 1363 1364 1365 1365 1365 1365 1366 1366 1368 1369 1369 1370 1371 1372 1375 1377 1379 1380 1382 1384 1385 1387 1389 1392
1381 1378 1376 1373 1371 1369 1368 1366 1364 1361 1359 1357 1355 1354 1354 1354 1355 1356 1356 1357 1358 1358 1359 1359 1359 1360 1360 1362 1364 1364 1365 1366 1367 1370 1372 1373 1376 1377 1378 1380 1382 1384 1386
1376 1373 1371 1368 1366 1364 1362 1360 1358 1356 1353 1351 1349 1348 1347 1347 1348 1348 1349 1350 1351 1352 1353 1354 1353 1354 1355 1356 1358 1359 1360 1361 1362 1365 1368 1368 1370 1372 1374 1376 1378 1380 1382
1371 1368 1366 1363 1360 1358 1356 1354 1352 1350 1347 1345 1344 1342 1341 1341 1342 1343 1342 1342 1343 1344 1346 1348 1348 1349 1350 1351 1353 1355 1355 1357 1358 1361 1364 1365 1366 1368 1370 1372 1375 1376 1378
1367 1364 1361 1358 1355 1352 1351 1349 1347 1344 1341 1339 1338 1337 1336 1335 1336 1337 1337 1336 1337 1338 1340 1341 1343 1344 1345 1347 1349 1350 1351 1353 1354 1357 1360 1362 1363 1366 1367 1369 1371 1374 1376
1363 1360 1357 1354 1351 1348 1346 1344 1343 1340 1337 1334 1333 1331 1331 1330 1330 1331 1331 1331 1331 1331 1333 1334 1336 1338 1340 1342 1344 1346 1347 1349 1351 1353 1356 1359 1361 1363 1365 1368 1369 1371 1373